• In Hungary
  • List of Countries
  • For 7 days
  • Water Temperature
  • Satellite Maps
  • Weather Map
  • News
  • Weather Widgets
  • user-avatar
    Login

    Hourly Weather Velmozhka

    Today, 21 June, Thursday

    Time Temperature Precipitation Wind Pressure Humidity
    00:00 +14°C° 0 mm 3 mps 741 mmHg 87%
    01:00 +14°C° 0 mm 3 mps 742 mmHg 89%
    02:00 +13°C° 0 mm 3 mps 742 mmHg 90%
    03:00 +13°C° 0 mm 2 mps 742 mmHg 93%
    04:00 +13°C° 0 mm 3 mps 742 mmHg 90%
    05:00 +14°C° 0 mm 3 mps 742 mmHg 87%
    06:00 +16°C° 0 mm 3 mps 743 mmHg 84%
    07:00 +17°C° 0 mm 3 mps 743 mmHg 77%
    08:00 +19°C° 0 mm 4 mps 743 mmHg 70%
    09:00 +20°C° 0 mm 4 mps 743 mmHg 64%
    10:00 +21°C° 0 mm 5 mps 743 mmHg 60%
    11:00 +22°C° 0 mm 5 mps 743 mmHg 57%
    12:00 +23°C° 0 mm 6 mps 743 mmHg 54%
    13:00 +23°C° 0 mm 6 mps 743 mmHg 55%
    14:00 +23°C° 0 mm 6 mps 743 mmHg 56%
    15:00 +23°C° 0 mm 7 mps 743 mmHg 57%
    16:00 +23°C° 0 mm 6 mps 743 mmHg 62%
    17:00 +23°C° 0 mm 5 mps 743 mmHg 66%
    18:00 +22°C° 0 mm 4 mps 743 mmHg 71%
    19:00 +21°C° 0 mm 4 mps 743 mmHg 76%
    20:00 +19°C° 0 mm 3 mps 743 mmHg 80%
    21:00 +18°C° 0 mm 3 mps 743 mmHg 85%
    22:00 +17°C° 0 mm 3 mps 743 mmHg 87%
    23:00 +17°C° 0 mm 3 mps 743 mmHg 89%

    Tomorrow, 22 June, Friday

    Time Temperature Precipitation Wind Pressure Humidity
    00:00 +16°C° 0 mm 3 mps 743 mmHg 92%
    01:00 +16°C° 0 mm 3 mps 744 mmHg 92%
    02:00 +16°C° 0 mm 2 mps 744 mmHg 92%
    03:00 +16°C° 0 mm 2 mps 744 mmHg 93%
    04:00 +16°C° 0 mm 2 mps 744 mmHg 91%
    05:00 +17°C° 0 mm 2 mps 744 mmHg 89%
    06:00 +18°C° 0 mm 2 mps 744 mmHg 87%
    07:00 +19°C° 0 mm 2 mps 744 mmHg 81%
    08:00 +21°C° 0 mm 2 mps 744 mmHg 75%
    09:00 +24°C° 0 mm 2 mps 744 mmHg 70%
    10:00 +25°C° 0 mm 3 mps 744 mmHg 66%
    11:00 +26°C° 0 mm 3 mps 744 mmHg 62%
    12:00 +27°C° 0 mm 3 mps 744 mmHg 58%
    13:00 +27°C° 0 mm 3 mps 744 mmHg 57%
    14:00 +27°C° 0 mm 3 mps 744 mmHg 56%
    15:00 +28°C° 0 mm 3 mps 744 mmHg 55%
    16:00 +27°C° 0 mm 2 mps 744 mmHg 59%
    17:00 +27°C° 0 mm 2 mps 743 mmHg 63%
    18:00 +27°C° 0 mm 2 mps 743 mmHg 68%
    19:00 +25°C° 0 mm 2 mps 743 mmHg 72%
    20:00 +23°C° 0 mm 2 mps 743 mmHg 76%
    21:00 +20°C° 0 mm 2 mps 743 mmHg 80%
    22:00 +20°C° 0 mm 2 mps 743 mmHg 81%
    23:00 +19°C° 0 mm 2 mps 744 mmHg 83%

    Day after tomorrow, 23 June, Saturday

    Time Temperature Precipitation Wind Pressure Humidity
    00:00 +18°C° 0 mm 2 mps 744 mmHg 85%
    01:00 +18°C° 0 mm 2 mps 744 mmHg 85%
    02:00 +18°C° 0 mm 2 mps 744 mmHg 86%
    03:00 +17°C° 0 mm 2 mps 744 mmHg 87%
    04:00 +18°C° 0 mm 2 mps 744 mmHg 85%
    05:00 +19°C° 0 mm 2 mps 744 mmHg 84%
    06:00 +19°C° 0 mm 2 mps 744 mmHg 82%
    07:00 +21°C° 0 mm 2 mps 744 mmHg 78%
    08:00 +24°C° 0 mm 3 mps 744 mmHg 73%
    09:00 +26°C° 0 mm 3 mps 744 mmHg 68%
    10:00 +26°C° 0 mm 3 mps 744 mmHg 64%
    11:00 +27°C° 0 mm 3 mps 744 mmHg 60%
    12:00 +28°C° 0 mm 3 mps 744 mmHg 55%
    13:00 +29°C° 0 mm 3 mps 743 mmHg 55%
    14:00 +29°C° 0 mm 3 mps 743 mmHg 54%
    15:00 +29°C° 0 mm 3 mps 743 mmHg 53%
    16:00 +29°C° 0 mm 3 mps 743 mmHg 58%
    17:00 +29°C° 0 mm 3 mps 742 mmHg 63%
    18:00 +28°C° 0 mm 2 mps 742 mmHg 68%
    19:00 +27°C° 0 mm 2 mps 742 mmHg 71%
    20:00 +25°C° 0 mm 3 mps 742 mmHg 73%
    21:00 +22°C° 0 mm 3 mps 742 mmHg 76%
    22:00 +21°C° 0 mm 3 mps 742 mmHg 76%
    23:00 +21°C° 0 mm 3 mps 742 mmHg 76%

    24 June, Sunday

    Time Temperature Precipitation Wind Pressure Humidity
    00:00 +20°C° 0 mm 4 mps 742 mmHg 76%
    01:00 +20°C° 0 mm 4 mps 742 mmHg 76%
    02:00 +20°C° 0 mm 4 mps 741 mmHg 75%
    03:00 +20°C° 0 mm 5 mps 741 mmHg 74%
    04:00 +20°C° 0 mm 5 mps 741 mmHg 75%
    05:00 +21°C° 0 mm 5 mps 741 mmHg 75%
    06:00 +21°C° 0 mm 6 mps 741 mmHg 75%
    07:00 +22°C° 0 mm 5 mps 741 mmHg 73%
    08:00 +23°C° 0 mm 5 mps 741 mmHg 70%
    09:00 +25°C° 0 mm 5 mps 742 mmHg 67%
    10:00 +26°C° 0 mm 5 mps 742 mmHg 64%
    11:00 +27°C° 0 mm 5 mps 742 mmHg 60%
    12:00 +28°C° 0 mm 6 mps 742 mmHg 57%
    13:00 +28°C° 0.1 mm 5 mps 742 mmHg 58%
    14:00 +27°C° 0.1 mm 5 mps 743 mmHg 59%
    15:00 +27°C° 0.1 mm 5 mps 743 mmHg 61%
    16:00 +26°C° 0.2 mm 4 mps 743 mmHg 67%
    17:00 +25°C° 0.2 mm 4 mps 743 mmHg 74%
    18:00 +24°C° 0.2 mm 3 mps 743 mmHg 80%
    19:00 +22°C° 0 mm 3 mps 744 mmHg 85%
    20:00 +21°C° 0 mm 3 mps 744 mmHg 89%
    21:00 +19°C° 0 mm 2 mps 744 mmHg 94%
    22:00 +19°C° 0 mm 2 mps 745 mmHg 95%
    23:00 +18°C° 0 mm 2 mps 745 mmHg 96%

    25 June, Monday

    Time Temperature Precipitation Wind Pressure Humidity
    00:00 +18°C° 0 mm 2 mps 745 mmHg 97%
    01:00 +17°C° 0 mm 2 mps 745 mmHg 97%
    02:00 +16°C° 0 mm 3 mps 745 mmHg 97%
    03:00 +16°C° 0 mm 3 mps 746 mmHg 97%
    04:00 +16°C° 0 mm 3 mps 746 mmHg 94%
    05:00 +16°C° 0 mm 3 mps 746 mmHg 92%
    06:00 +17°C° 0 mm 3 mps 746 mmHg 89%
    07:00 +18°C° 0 mm 3 mps 746 mmHg 85%
    08:00 +19°C° 0 mm 3 mps 746 mmHg 81%
    09:00 +20°C° 0 mm 3 mps 747 mmHg 77%
    10:00 +21°C° 0 mm 3 mps 747 mmHg 75%
    11:00 +22°C° 0 mm 3 mps 747 mmHg 73%
    12:00 +24°C° 0 mm 2 mps 747 mmHg 71%
    13:00 +24°C° 0.1 mm 2 mps 747 mmHg 69%
    14:00 +25°C° 0.1 mm 2 mps 747 mmHg 67%
    15:00 +25°C° 0.1 mm 2 mps 747 mmHg 65%
    16:00 +25°C° 0.4 mm 2 mps 747 mmHg 67%
    17:00 +25°C° 0.4 mm 2 mps 747 mmHg 68%
    18:00 +25°C° 0.4 mm 2 mps 747 mmHg 70%
    19:00 +23°C° 0.2 mm 2 mps 747 mmHg 74%
    20:00 +21°C° 0.2 mm 2 mps 747 mmHg 77%
    21:00 +19°C° 0.2 mm 2 mps 747 mmHg 81%
    22:00 +18°C° 0 mm 2 mps 747 mmHg 81%
    23:00 +17°C° 0 mm 2 mps 747 mmHg 82%

    26 June, Tuesday

    Time Temperature Precipitation Wind Pressure Humidity
    00:00 +17°C° 0 mm 2 mps 747 mmHg 83%
    01:00 +16°C° 0 mm 2 mps 747 mmHg 85%
    02:00 +16°C° 0 mm 2 mps 747 mmHg 86%
    03:00 +16°C° 0 mm 3 mps 747 mmHg 88%
    04:00 +16°C° 0 mm 3 mps 747 mmHg 88%
    05:00 +17°C° 0 mm 3 mps 747 mmHg 88%
    06:00 +18°C° 0 mm 3 mps 747 mmHg 88%
    07:00 +19°C° 0 mm 3 mps 747 mmHg 83%
    08:00 +21°C° 0 mm 3 mps 747 mmHg 77%
    09:00 +23°C° 0 mm 4 mps 747 mmHg 71%
    10:00 +25°C° 0 mm 3 mps 747 mmHg 67%
    11:00 +25°C° 0 mm 3 mps 747 mmHg 63%
    12:00 +26°C° 0 mm 3 mps 747 mmHg 59%
    13:00 +27°C° 0 mm 3 mps 747 mmHg 59%
    14:00 +27°C° 0 mm 3 mps 747 mmHg 58%
    15:00 +27°C° 0 mm 3 mps 747 mmHg 58%
    16:00 +27°C° 0.1 mm 3 mps 747 mmHg 61%
    17:00 +27°C° 0.1 mm 3 mps 747 mmHg 64%
    18:00 +27°C° 0.1 mm 2 mps 747 mmHg 68%
    19:00 +25°C° 0.1 mm 2 mps 747 mmHg 71%
    20:00 +23°C° 0.1 mm 2 mps 747 mmHg 74%
    21:00 +20°C° 0.1 mm 2 mps 747 mmHg 78%
    22:00 +20°C° 0 mm 2 mps 747 mmHg 79%
    23:00 +19°C° 0 mm 2 mps 747 mmHg 81%
    Show more